Wind_Speed
15 15 15 15 16 17 17 18 20 21 23 24 25 25 25 24 24 25 25 25 24 22 20 21 24 29 32 33 34 35 37 38 38 38 39 39 40 39 38 38 36 35 35 34 33 32 31 31 30 30 29 29 29 28 29 30 31 32 32 32 31 31 31 31 31 31 30 29 27 27 27 28 29 31 31 29 28 27 26 25 25 23 23 24 23 23 23
14 14 14 14 16 16 17 18 19 21 22 24 25 26 25 24 24 25 24 22 21 20 18 18 20 23 26 28 29 32 35 37 37 38 39 38 38 37 38 38 37 36 35 34 34 33 32 31 30 30 29 29 28 27 27 27 29 31 33 34 33 34 35 34 33 33 31 29 30 30 30 30 31 31 33 33 33 32 30 28 27 25 24 22 20 22 23
13 12 13 14 15 16 17 18 20 21 23 24 26 26 26 25 25 24 23 20 18 18 18 19 19 20 22 24 25 27 32 36 37 37 39 39 37 36 36 36 36 36 35 35 35 34 32 31 31 30 30 29 28 27 26 27 28 28 30 32 32 35 37 36 35 34 31 30 31 30 29 30 31 30 32 34 35 34 33 32 30 28 28 25 21 22 21
12 12 13 14 15 16 18 19 21 22 24 25 26 27 27 25 24 24 24 21 19 18 18 18 19 19 19 21 23 25 28 33 35 36 38 38 37 35 33 32 33 34 35 35 35 34 33 32 32 31 31 30 28 27 26 26 27 27 27 27 27 30 34 37 37 36 34 33 33 31 29 28 29 31 32 34 35 34 34 33 30 28 28 27 25 25 23
11 12 13 14 15 17 18 19 21 22 24 26 27 28 27 25 25 25 25 21 15 11 11 13 15 16 17 17 19 23 27 30 33 35 36 37 36 35 32 31 30 31 32 34 35 34 34 33 33 32 31 30 29 28 27 26 27 26 26 27 26 25 26 31 36 39 39 37 35 32 31 29 30 31 31 33 34 34 34 33 30 28 27 25 25 26 25
11 12 13 14 15 16 18 20 21 23 24 26 27 28 28 27 26 26 25 18 6 1 2 7 9 11 13 15 17 22 26 28 29 31 33 35 35 34 33 31 29 29 29 31 33 34 34 34 34 33 32 31 30 29 29 28 27 26 25 25 26 24 22 22 27 32 37 39 36 34 34 33 33 32 31 32 33 33 33 32 31 31 28 26 27 26 26
11 12 14 14 15 17 18 20 21 22 24 25 27 29 29 29 28 27 25 15 1 5 3 2 7 8 9 12 16 20 23 25 26 28 30 31 33 33 32 31 30 29 28 28 30 32 34 34 34 33 33 32 32 31 30 29 28 27 26 24 24 25 24 23 22 22 27 33 35 36 37 36 36 35 34 34 34 33 34 33 33 33 31 31 31 29 28
12 13 14 15 16 17 18 20 21 22 23 25 27 29 30 29 28 28 24 12 1 4 2 3 4 4 7 10 14 18 20 21 23 24 26 28 29 30 30 30 29 29 28 28 28 30 32 33 33 33 33 33 32 31 30 29 27 26 25 25 25 24 23 24 24 22 21 24 27 31 36 39 39 38 37 37 36 35 35 35 35 34 34 33 33 32 30
11 13 14 15 16 18 19 20 22 22 24 25 26 28 29 29 29 29 25 15 4 3 4 2 9 9 6 9 12 15 17 19 20 21 22 24 25 26 27 27 27 27 27 27 27 28 29 31 32 32 32 32 32 31 30 30 29 28 26 25 24 24 22 22 23 24 23 22 22 23 27 32 36 40 41 41 40 39 38 37 37 37 36 36 35 34 33
11 13 14 15 16 18 19 20 22 23 24 25 26 27 29 29 29 30 27 20 12 6 0 2 5 11 10 7 9 14 14 15 17 17 18 20 22 23 23 24 25 25 26 26 25 26 27 28 29 30 30 30 30 31 31 31 31 31 29 28 26 25 25 24 24 25 25 25 25 24 23 23 26 30 34 37 38 39 40 40 40 40 39 39 39 38 37
11 12 13 14 16 17 19 20 22 23 25 25 25 26 28 29 29 29 29 25 19 14 8 3 4 7 12 12 8 8 11 12 14 15 16 18 19 20 21 22 23 23 24 24 24 24 25 26 27 28 29 29 29 30 31 31 31 31 30 30 29 27 27 26 25 26 27 25 26 26 26 25 22 21 23 27 29 31 33 36 37 37 37 38 39 39 39
11 12 13 14 15 16 18 20 21 23 24 25 25 26 26 27 28 28 29 28 25 20 13 7 5 6 7 10 11 8 6 8 11 13 15 15 16 17 18 20 21 21 22 23 23 23 23 24 26 28 29 30 30 30 29 29 29 29 28 28 28 26 26 26 25 26 26 25 26 28 29 27 23 21 23 23 24 25 27 29 30 30 31 34 36 38 40
10 11 12 13 15 16 18 19 21 22 23 24 25 25 25 26 27 28 27 27 26 24 19 13 8 6 5 5 8 9 7 4 4 9 13 14 14 15 16 17 18 20 21 21 22 23 23 23 25 26 28 30 31 31 30 29 28 27 26 26 26 25 25 25 25 25 25 25 26 28 28 26 24 24 26 26 25 25 25 26 27 28 29 31 34 36 38
10 11 11 13 14 16 17 19 20 21 23 23 24 24 25 25 25 26 26 25 24 24 22 19 15 11 6 4 3 4 4 3 3 2 6 10 13 15 16 15 17 19 21 22 23 24 25 26 26 26 26 28 29 30 31 30 30 29 29 28 27 26 26 26 27 28 27 26 27 27 26 25 25 25 26 27 28 28 27 27 28 29 30 31 31 33 34
9 10 11 12 14 15 17 18 20 21 22 23 23 24 24 25 25 25 25 23 23 22 21 20 19 17 12 7 3 1 1 2 2 1 2 5 7 10 12 12 12 15 19 21 23 24 25 27 28 28 28 28 29 30 31 31 32 32 31 31 29 29 28 27 27 27 27 27 28 28 27 27 25 25 26 27 29 29 30 30 29 30 30 31 31 32 32
9 10 11 13 14 15 17 18 19 21 21 22 23 24 24 24 24 23 22 21 21 21 20 19 18 17 15 13 8 4 1 2 5 6 7 9 9 9 9 10 10 12 15 18 20 22 23 25 27 28 29 29 30 31 32 32 33 33 33 33 33 32 31 29 29 29 27 26 26 27 28 28 26 25 26 27 28 29 30 30 31 31 31 31 31 32 32
9 10 11 13 14 15 17 18 19 20 21 22 23 23 23 23 23 22 21 21 21 20 19 18 17 16 15 14 12 10 6 3 2 4 7 10 12 13 14 14 14 15 16 17 19 20 22 24 25 27 28 30 31 31 32 33 34 34 34 34 34 34 33 32 32 32 30 29 29 29 30 30 28 27 28 29 29 30 30 31 32 32 32 33 33 33 34
9 10 11 12 14 15 16 18 19 20 21 21 22 22 22 22 22 21 21 21 20 19 18 17 16 15 14 13 11 10 9 7 5 3 3 5 8 11 13 16 18 19 20 20 21 21 22 23 25 26 27 28 29 30 31 32 33 34 34 34 34 35 35 34 35 34 33 32 33 33 33 32 30 31 32 32 32 33 34 35 34 33 34 35 35 36 36
8 10 11 13 14 15 16 17 18 19 20 20 21 21 22 22 21 21 21 21 20 19 18 17 16 15 14 12 11 10 9 7 6 5 4 3 4 6 8 11 14 16 18 21 23 24 25 26 26 27 28 29 29 30 31 31 31 32 32 33 33 34 34 35 36 36 35 35 35 36 35 33 32 33 35 36 36 37 37 36 36 35 36 36 36 37 37
8 10 11 13 14 15 16 17 18 19 19 20 21 21 21 21 21 20 20 19 18 17 17 17 16 15 14 12 11 10 9 8 7 6 5 4 4 5 6 7 9 11 13 15 18 20 23 25 27 29 31 32 32 32 33 33 33 34 34 34 34 33 33 34 35 36 37 37 38 39 40 38 34 32 32 34 36 36 36 35 35 37 37 37 38 38 39
8 9 11 12 14 15 16 17 18 19 19 20 21 21 21 21 21 21 20 18 17 17 16 16 15 15 14 13 12 10 10 9 7 7 6 5 5 5 5 6 7 8 10 11 13 14 16 18 21 23 27 30 32 33 35 35 36 37 37 37 37 37 35 34 35 36 36 36 37 39 40 40 39 36 35 35 36 37 37 37 38 39 39 39 39 40 40
7 9 11 12 14 15 16 17 18 19 19 19 20 20 21 21 21 20 20 19 18 17 16 16 15 15 14 13 12 11 11 9 8 8 7 7 6 5 5 6 6 7 8 9 10 11 12 14 15 16 18 20 23 27 30 31 32 35 37 37 37 38 38 37 37 38 38 38 38 39 39 40 42 43 43 43 44 44 44 43 43 43 42 42 42 42 43
7 9 11 12 14 15 17 18 18 19 19 20 20 20 20 20 20 20 20 19 19 17 16 15 14 14 14 12 11 11 10 10 9 8 8 8 7 7 7 7 7 7 7 8 8 9 10 11 12 13 14 14 15 18 21 23 26 29 33 34 35 35 37 37 37 38 39 39 40 40 40 41 42 43 44 45 45 45 45 45 45 44 44 44 44 44 44
7 9 10 12 14 15 16 18 19 19 20 20 20 20 20 20 20 19 19 19 18 18 17 16 15 14 14 14 12 11 10 10 10 10 9 8 8 8 8 8 8 8 8 8 8 9 9 9 10 11 11 12 13 13 14 16 18 21 25 27 29 31 32 33 33 34 36 37 38 39 39 40 41 42 42 43 43 43 42 42 42 43 43 43 43 43 44
7 9 11 12 13 15 16 17 18 19 20 20 20 20 20 20 19 19 19 19 19 18 18 17 16 16 16 15 14 12 11 10 10 10 10 9 9 8 8 8 8 9 9 9 9 9 9 9 9 9 10 10 11 11 12 12 13 14 17 20 22 24 26 28 29 30 31 32 34 35 36 37 38 39 39 40 40 40 40 40 40 40 41 41 41 41 41
8 9 11 12 13 15 16 17 17 18 19 19 20 20 20 20 20 20 20 19 19 18 18 18 17 16 16 16 15 14 12 11 11 10 10 10 10 9 9 8 9 9 9 10 10 10 10 10 10 10 10 10 10 10 11 11 11 11 12 13 15 18 20 22 24 25 26 28 29 30 31 32 33 34 35 35 35 35 36 36 37 37 37 37 38 38 38
9 10 11 12 13 15 16 17 18 18 18 19 19 20 20 21 21 20 20 19 19 18 18 18 17 17 16 16 15 14 13 12 11 11 10 11 11 10 10 10 10 10 10 10 10 10 11 11 11 10 10 10 10 10 11 11 11 12 11 11 12 13 14 16 18 19 21 22 24 25 26 27 28 29 30 30 31 31 32 32 33 33 34 35 35 35 35
9 10 11 12 13 15 16 17 18 18 18 19 19 20 20 21 21 20 20 20 19 19 19 19 18 17 17 16 15 15 13 12 12 11 11 11 11 11 10 10 10 11 10 10 11 11 11 11 11 11 11 11 11 11 11 12 12 12 12 12 12 12 12 12 14 14 14 16 18 19 20 22 23 24 25 26 27 28 29 30 31 32 32 33 34 35 36
11 11 12 13 14 15 16 17 18 18 18 19 20 20 21 21 21 21 20 20 20 19 19 19 18 18 17 16 15 15 14 13 12 11 11 11 11 11 11 11 11 11 11 11 12 12 12 12 12 12 12 12 12 12 12 12 12 12 12 12 13 13 13 13 14 14 14 14 15 16 17 18 19 20 21 22 23 24 25 26 27 28 29 30 31 32 34
12 13 13 14 14 15 16 17 18 19 19 19 20 21 21 21 21 21 21 21 20 20 20 19 19 18 17 16 16 15 14 13 12 12 11 11 11 10 11 11 11 12 12 12 12 13 13 13 13 13 12 12 13 13 12 13 12 12 12 12 13 13 14 14 15 15 16 16 17 17 17 18 18 19 19 20 21 21 22 23 24 25 26 27 28 29 30
13 14 14 15 15 16 16 17 18 18 19 20 21 22 22 21 21 21 21 21 21 21 20 19 19 18 17 16 16 15 14 14 13 12 12 12 11 11 11 11 11 11 12 12 12 13 13 13 13 13 13 12 13 13 13 13 13 13 12 13 13 13 14 14 15 16 16 17 17 18 18 19 19 20 20 21 21 21 22 23 23 24 25 26 27 27 29
14 14 15 15 16 16 16 17 18 18 19 20 21 21 21 21 21 21 22 22 22 21 20 19 18 18 17 16 15 15 14 14 14 13 12 12 12 12 12 11 11 12 12 12 12 13 13 13 13 13 13 12 12 13 13 14 14 13 13 14 14 13 13 13 14 15 15 16 17 17 18 19 19 20 20 21 21 22 22 23 23 24 24 25 26 27 27
14 15 15 16 16 16 16 16 18 19 20 20 21 21 21 21 21 22 22 22 21 20 19 19 18 18 17 16 15 15 14 14 14 14 13 13 13 13 12 12 12 12 12 12 13 13 13 13 13 13 13 13 13 13 13 13 14 14 14 15 15 14 14 14 14 14 15 15 16 16 17 17 18 19 19 20 20 21 21 22 22 22 23 23 24 24 25
15 15 15 16 16 16 16 17 18 19 20 20 20 20 21 21 21 22 22 22 21 20 19 19 18 17 16 15 15 14 14 15 14 14 14 13 13 13 13 13 12 12 12 13 14 14 14 14 14 14 13 13 13 13 13 13 13 14 14 15 15 15 15 14 14 14 14 15 16 16 17 17 18 18 18 19 19 20 20 20 20 21 21 21 22 22 23
15 15 15 16 16 16 17 17 18 19 19 20 20 20 21 21 22 22 21 21 20 19 18 18 18 17 16 15 14 14 14 14 15 15 14 14 14 13 13 13 13 13 13 14 14 14 14 15 15 15 14 14 13 13 14 13 13 13 14 14 15 15 15 15 15 14 15 15 16 16 17 17 17 18 18 18 19 19 18 19 19 19 20 20 20 21 21
15 15 16 16 16 17 17 18 18 19 20 20 20 21 21 21 21 21 20 19 19 19 18 17 17 16 15 14 14 14 14 14 14 15 15 14 14 13 13 14 14 14 14 15 15 15 15 16 16 16 15 15 14 14 14 14 14 14 13 13 13 14 15 15 15 15 15 16 16 17 17 17 18 18 18 18 18 18 18 18 18 18 19 19 19 20 20
16 15 15 16 17 17 18 18 19 20 20 20 21 22 22 21 20 20 19 18 18 17 17 17 16 15 15 14 14 14 14 15 15 15 15 15 15 14 14 14 14 15 15 16 16 16 17 17 17 16 16 15 15 15 15 15 15 14 14 13 13 13 14 15 15 16 16 16 17 17 18 18 18 18 18 18 18 18 18 18 18 18 18 18 19 19 18
16 16 16 16 17 18 18 19 20 20 20 21 22 22 21 20 20 19 18 18 17 17 16 16 15 14 14 14 14 14 15 16 16 16 16 16 16 16 15 15 16 16 17 17 17 18 18 17 17 17 16 16 16 16 16 16 16 15 15 14 14 13 14 14 15 16 16 17 18 18 18 19 19 19 19 18 18 18 17 17 17 17 18 17 17 17 15
16 16 16 17 17 18 18 19 20 20 20 21 22 21 20 19 19 18 18 17 16 16 16 15 14 14 14 13 13 14 15 16 17 17 17 17 17 17 17 17 17 18 18 18 19 19 19 18 18 18 17 17 17 17 16 16 16 16 16 15 15 14 14 14 14 15 16 17 18 18 19 19 19 19 19 18 18 18 17 17 17 17 17 16 15 14 12
16 16 16 17 17 18 19 20 20 20 21 21 21 21 20 19 18 18 17 16 16 16 15 15 13 13 13 13 14 14 15 16 17 17 18 18 18 18 18 18 19 20 21 21 21 20 20 19 19 19 18 18 17 17 16 16 17 17 16 16 16 15 15 15 14 14 15 17 18 19 19 19 19 19 19 18 18 17 17 16 16 16 16 15 13 11 10
16 16 17 17 18 18 19 20 20 20 21 21 21 20 20 19 18 17 17 16 16 16 15 14 13 12 12 13 13 14 15 16 17 17 18 18 19 19 19 20 20 22 22 22 22 21 21 20 19 19 19 19 19 18 17 17 17 17 17 17 17 17 16 16 15 14 15 16 18 19 19 19 19 19 18 18 18 17 16 16 16 15 15 13 11 9 9
16 17 17 17 18 19 20 20 20 20 20 20 20 20 20 18 17 17 17 17 16 15 14 13 12 12 12 13 13 14 15 16 17 18 18 19 19 20 20 21 22 22 23 23 23 22 21 20 20 20 20 20 20 19 18 18 17 17 17 17 17 17 17 17 16 15 15 16 17 18 18 18 18 18 18 18 17 16 16 15 15 15 13 11 10 9 9
17 17 18 18 18 19 20 20 20 20 20 20 20 20 19 18 17 17 17 17 16 15 14 13 12 12 12 13 14 15 16 17 18 19 19 20 21 21 22 22 23 23 23 23 23 22 20 20 20 21 21 21 21 20 19 19 18 18 18 18 18 18 17 17 16 15 15 16 17 17 18 18 18 18 18 17 17 16 15 15 14 14 12 11 10 9 9
18 18 18 19 19 20 20 20 19 20 20 20 20 20 19 18 17 17 17 17 16 15 13 12 12 12 12 14 15 16 17 18 19 20 20 21 22 23 23 24 25 25 25 24 24 22 21 20 20 21 22 22 22 20 20 19 18 18 18 18 18 17 17 17 16 15 15 15 16 16 17 17 17 17 17 17 16 16 15 14 14 13 12 11 10 10 10
18 18 19 20 20 20 20 20 19 20 20 20 19 19 18 17 17 17 17 17 16 14 13 12 12 12 13 14 15 17 18 19 20 21 22 23 24 24 25 27 27 27 27 27 26 24 21 20 20 21 22 23 22 20 19 19 18 18 18 18 17 17 17 17 16 15 14 14 15 16 16 16 17 17 17 16 16 15 14 14 13 13 13 12 12 11 10
19 19 20 20 20 20 19 19 19 20 20 19 19 18 18 17 18 18 17 16 15 14 13 12 12 12 13 15 16 18 19 20 21 22 24 25 25 26 28 29 30 30 30 30 28 26 22 20 21 22 22 23 22 21 20 19 19 18 18 18 17 17 17 16 15 14 14 14 14 15 15 15 16 16 16 16 15 15 14 14 13 13 13 13 13 12 11
19 20 21 21 21 20 19 19 20 20 20 19 18 18 17 17 18 18 17 16 15 14 13 12 12 13 14 16 18 19 20 22 23 24 25 27 28 29 30 31 32 33 33 31 29 27 23 21 21 22 23 23 22 21 20 19 19 18 18 17 17 17 17 16 14 13 13 14 14 14 15 15 15 16 16 15 15 14 14 14 13 13 13 13 14 14 13
20 21 21 22 21 20 19 19 20 20 20 19 18 17 17 17 18 18 17 16 15 14 13 13 13 14 15 16 18 20 21 23 24 25 27 29 31 32 34 35 36 35 34 31 29 28 25 22 21 22 23 22 22 21 19 18 18 18 17 16 16 16 17 16 15 13 13 13 14 15 15 15 15 15 16 15 14 14 14 14 14 13 13 14 14 15 14
22 22 23 23 22 20 19 20 20 20 20 19 18 17 16 16 16 17 17 16 15 14 14 14 14 15 16 17 19 21 22 24 25 27 29 32 34 36 38 39 38 36 34 31 29 28 27 24 22 22 22 22 21 21 20 18 17 16 16 16 16 16 17 17 16 14 13 13 14 15 15 15 15 15 15 15 15 15 15 15 15 14 14 14 14 15 15
23 23 23 23 22 20 19 20 20 20 19 19 18 17 16 15 15 15 16 16 15 15 14 14 15 16 17 18 20 22 23 25 27 29 32 35 37 39 40 40 37 35 33 31 28 28 27 25 22 22 22 22 22 21 20 18 17 16 15 15 16 16 17 17 17 16 14 13 13 14 15 16 15 15 15 15 16 16 16 16 16 16 16 15 15 15 15
23 23 23 22 22 21 20 20 21 20 20 19 19 18 17 16 15 14 14 14 14 14 14 15 16 17 18 20 22 24 26 27 29 32 35 38 40 42 41 39 36 34 32 30 28 27 26 24 22 21 22 22 22 21 19 18 17 16 15 15 15 16 16 17 17 16 15 14 13 14 15 15 15 15 16 16 17 17 17 17 17 17 17 16 16 16 16
22 22 22 22 22 21 21 21 21 20 20 20 19 19 19 18 17 16 15 14 14 14 15 16 17 19 20 22 24 26 28 30 32 35 38 41 43 43 41 38 35 33 32 30 28 27 25 23 22 21 21 21 21 20 18 17 16 16 16 15 15 16 16 17 17 17 16 15 14 14 14 14 15 16 16 17 17 18 18 18 18 18 19 18 18 17 18
Wind_Direction
319 321 322 323 324 326 328 328 326 326 325 325 326 326 325 321 317 312 306 297 287 280 276 270 260 250 245 242 239 234 229 225 224 223 223 224 223 221 219 218 217 218 219 220 223 224 224 225 227 230 232 234 236 237 236 234 233 231 232 232 231 230 230 228 228 231 233 238 239 237 236 233 229 230 230 229 232 235 235 235 237 239 238 238 238 241 241
324 328 330 332 333 334 336 334 334 333 333 333 334 334 332 329 326 321 314 301 285 276 274 272 265 255 248 244 240 234 227 223 221 221 221 223 223 221 220 218 217 217 218 220 223 224 225 226 228 231 233 235 237 240 241 241 239 235 233 233 232 231 231 229 228 231 235 239 239 239 238 233 231 233 233 230 232 234 235 236 237 239 239 237 236 240 240
331 336 339 341 341 342 342 341 341 340 340 341 340 340 339 336 332 327 321 309 290 275 270 267 263 255 248 245 240 234 226 221 219 219 219 221 222 221 220 219 218 217 217 220 222 225 226 227 229 231 232 234 237 239 241 243 243 241 238 237 236 235 235 231 228 230 232 236 239 240 240 238 238 237 235 233 234 236 237 238 239 240 241 239 235 238 238
339 344 349 350 349 348 347 347 347 347 347 346 346 346 344 340 337 333 327 316 297 281 273 264 256 248 244 241 237 231 223 218 218 217 218 219 220 220 220 218 218 217 218 220 222 225 226 227 229 232 233 235 237 240 242 243 244 244 243 241 239 239 239 236 233 229 227 231 237 239 240 242 242 241 237 235 235 235 236 238 240 241 242 240 235 236 238
347 353 358 358 355 353 352 351 352 352 351 350 350 350 348 346 344 340 334 324 306 290 283 268 249 238 237 237 231 224 218 216 215 216 217 218 218 219 218 218 218 218 218 220 222 225 227 229 231 233 235 237 237 239 242 245 246 246 246 245 242 243 244 240 237 233 229 230 234 236 237 238 238 239 239 238 237 236 236 238 239 238 238 238 236 234 236
354 360 4 3 360 357 355 356 356 355 355 354 354 353 352 352 351 347 343 335 315 157 315 270 235 225 231 231 223 216 213 212 213 214 216 218 218 219 218 218 219 220 220 221 223 225 228 231 233 235 237 239 239 240 242 244 246 247 248 248 247 247 247 244 240 237 234 233 233 234 235 236 237 237 237 237 237 237 237 238 239 238 236 236 237 235 236
358 3 7 5 2 360 359 0 360 359 358 357 356 357 358 358 356 355 353 346 254 141 60 261 221 223 230 222 214 210 207 207 210 212 215 217 219 219 220 220 221 222 223 223 224 225 227 231 234 236 238 240 241 241 242 244 247 248 249 250 251 249 246 244 244 242 239 236 235 235 235 236 238 238 237 237 237 237 237 238 238 239 238 237 238 239 238
2 5 6 5 3 3 4 5 4 3 2 0 0 2 2 2 2 3 5 3 208 177 117 102 129 168 198 203 204 204 203 204 207 210 213 216 218 219 221 222 222 223 225 225 225 226 228 230 233 237 239 241 243 244 245 245 247 250 251 250 250 250 247 244 244 245 244 242 240 240 239 237 237 238 238 236 236 236 237 237 238 239 239 240 241 242 241
5 6 5 5 6 8 10 10 10 9 7 5 5 6 5 6 8 12 17 26 52 187 205 121 66 75 133 186 197 198 199 202 204 208 212 214 215 217 220 222 223 223 225 226 226 227 228 230 232 235 238 241 244 246 247 247 247 248 250 249 249 250 249 248 248 248 248 249 250 248 245 241 239 240 240 237 235 236 237 237 238 239 241 243 244 244 243
8 6 6 8 11 14 15 16 16 14 12 11 10 9 9 11 14 18 25 36 50 51 313 257 31 51 73 117 178 194 199 202 204 207 210 213 214 215 217 220 222 223 224 226 227 227 229 230 231 234 237 240 243 245 247 248 249 249 249 249 251 253 255 256 257 255 253 252 254 257 255 249 244 242 242 240 238 238 239 240 239 239 240 242 243 244 244
10 9 11 14 17 18 19 19 18 17 16 16 15 13 14 15 18 22 28 38 48 48 39 8 349 34 59 76 111 169 192 200 204 205 206 212 216 217 218 220 222 223 225 227 229 229 230 231 230 231 234 238 240 243 247 250 252 252 253 253 255 257 259 258 258 257 255 253 254 256 255 252 249 246 244 242 241 239 239 240 241 241 242 242 241 241 242
13 14 15 18 20 20 19 18 18 17 17 18 18 18 18 19 22 25 28 33 42 46 45 37 15 22 48 62 71 89 140 184 199 204 204 207 213 218 222 224 225 226 227 229 231 232 231 231 230 231 232 235 238 241 245 249 251 254 256 257 257 257 257 256 255 255 255 253 252 252 251 251 251 252 250 248 245 242 238 236 236 239 243 246 245 243 242
15 17 19 20 19 18 16 15 15 16 17 18 19 20 21 22 25 28 29 31 35 39 43 46 45 39 36 44 56 64 78 108 169 201 208 211 213 218 223 222 222 225 227 228 230 232 234 233 233 233 233 235 238 240 242 245 247 249 252 253 253 252 252 253 254 254 254 253 252 252 252 253 253 251 250 250 248 246 243 238 234 234 237 243 245 245 243
17 19 20 19 17 14 12 11 11 13 15 17 19 21 22 24 27 30 31 32 34 36 38 41 46 49 42 29 30 47 63 67 65 141 202 213 215 217 221 222 221 224 225 224 225 228 231 233 234 236 236 236 238 239 241 243 244 245 246 247 249 251 253 256 258 258 257 256 255 254 253 253 255 254 251 249 247 246 246 243 240 237 237 239 241 242 242
18 19 20 18 15 12 10 10 11 12 14 16 18 19 22 24 27 31 32 32 35 38 37 38 41 44 44 43 35 3 277 256 280 297 236 232 222 215 220 225 227 229 230 228 228 228 230 231 233 236 237 237 238 239 240 242 244 245 246 248 251 253 255 257 259 258 258 258 257 258 256 253 253 255 253 249 248 246 246 245 245 243 243 243 244 245 246
18 18 17 14 12 11 10 9 10 11 13 15 16 18 21 22 25 29 31 33 35 38 38 38 39 40 41 43 45 40 6 255 251 251 250 253 251 244 240 240 240 239 238 236 236 236 237 237 237 238 240 240 241 242 243 244 246 247 248 250 252 253 253 256 257 256 258 259 258 259 259 255 253 253 252 249 247 245 244 245 245 245 247 248 249 250 252
12 12 11 9 8 8 8 8 8 9 11 13 14 17 19 21 22 24 28 32 35 36 36 37 38 40 39 40 42 41 38 27 316 263 251 250 251 250 248 247 245 244 243 242 241 241 242 242 242 243 244 244 245 247 247 248 249 250 251 252 254 253 253 254 255 256 256 258 259 259 260 259 256 254 252 250 248 246 246 247 248 250 252 253 253 253 254
3 3 2 2 3 4 5 6 7 7 9 11 12 15 18 19 20 22 23 26 30 32 33 35 36 37 38 37 38 38 36 33 24 359 309 273 260 254 251 249 247 246 246 245 243 243 243 244 244 245 246 247 247 248 249 249 250 251 252 253 253 253 253 253 253 254 254 254 256 257 259 260 257 253 251 250 250 250 251 252 253 254 255 256 256 256 257
355 356 355 356 359 1 2 4 5 6 7 8 10 13 16 17 18 21 22 22 23 24 26 29 30 31 32 32 33 34 32 30 26 14 356 327 295 276 266 259 255 252 251 249 248 248 247 247 247 248 248 248 247 248 249 250 250 250 251 251 251 252 252 252 252 252 251 250 251 252 254 256 256 253 251 250 249 250 252 254 254 254 255 257 258 258 258
351 352 352 353 355 358 359 1 2 3 4 6 7 9 11 13 16 19 21 21 20 20 21 22 22 22 23 23 25 26 23 22 20 14 2 346 323 301 286 275 267 261 257 254 252 252 252 252 252 252 252 252 251 251 251 251 251 251 250 250 250 249 250 251 251 251 250 250 250 250 251 252 252 251 249 247 247 249 251 252 252 253 254 256 257 258 258
347 349 350 351 353 355 357 358 359 0 1 3 5 6 6 8 11 14 17 18 19 19 20 19 17 15 15 15 16 16 13 10 8 4 358 351 341 324 308 295 283 273 267 262 258 256 255 255 255 254 254 255 254 254 254 254 253 253 252 251 251 249 248 249 250 250 250 250 250 250 250 249 248 246 245 245 248 252 254 255 254 255 256 256 256 256 256
344 347 349 350 352 353 354 355 356 357 358 360 2 3 3 4 6 8 10 13 15 16 16 15 14 13 10 8 7 8 7 3 358 354 349 342 337 332 324 316 305 294 285 278 272 268 264 260 259 257 257 256 255 255 255 255 255 254 254 253 253 252 250 249 249 249 248 248 249 250 250 249 248 247 247 249 252 255 257 258 259 259 259 258 258 257 257
341 346 347 348 349 350 351 353 353 353 355 357 359 0 1 1 2 2 4 6 9 11 11 11 11 10 8 6 4 3 1 359 356 352 347 342 337 333 329 324 318 312 306 298 291 284 277 272 268 266 264 262 261 258 256 255 255 255 254 254 253 253 252 251 250 250 249 249 249 250 250 250 250 250 251 252 254 256 258 259 259 260 260 261 260 260 259
336 342 344 345 347 348 348 349 350 350 352 353 355 357 358 358 357 357 359 0 3 5 7 7 6 5 6 6 6 2 358 356 355 350 347 345 342 337 332 328 323 318 313 309 305 300 294 288 281 277 274 270 267 266 264 262 260 258 256 255 254 253 253 252 251 251 251 251 251 250 251 251 251 252 253 254 256 257 258 258 259 260 261 261 262 262 262
330 336 339 341 342 344 345 346 347 348 349 350 351 352 354 354 353 353 354 356 357 358 360 2 2 1 1 2 2 360 358 356 353 348 345 346 345 341 337 332 326 322 318 314 311 307 303 299 293 288 285 281 275 273 271 270 268 264 261 259 257 255 254 254 253 252 252 252 252 252 252 253 253 253 254 255 256 258 259 260 260 260 260 261 261 262 262
324 329 333 336 338 340 341 342 344 345 347 348 347 348 349 350 351 350 351 351 352 352 353 356 357 357 357 358 357 357 358 356 352 348 346 346 345 343 342 340 336 330 324 319 315 310 306 304 301 296 292 287 283 279 275 273 272 269 266 264 262 259 258 256 256 256 255 254 254 254 254 254 255 255 256 257 258 259 260 261 262 263 264 264 265 266 266
317 323 327 330 333 336 337 338 339 341 343 344 344 344 346 347 347 347 347 347 347 348 348 350 352 353 353 353 354 355 355 353 351 348 346 346 347 345 343 342 341 337 332 325 320 315 310 306 302 299 296 291 287 283 279 275 273 270 269 268 266 264 262 260 259 259 258 257 257 256 256 256 256 256 256 257 258 258 258 259 260 260 261 262 263 264 265
310 316 321 325 329 331 333 334 335 336 339 340 340 340 343 344 343 343 344 343 343 344 344 345 347 348 348 350 352 353 353 353 351 347 344 344 345 345 343 341 340 339 336 331 325 320 315 310 304 299 297 294 290 286 282 278 275 273 271 270 268 267 266 263 262 261 260 260 260 258 256 256 255 255 255 255 255 255 256 256 257 257 258 258 259 259 259
306 311 316 321 325 327 329 330 331 332 334 336 336 337 340 341 340 340 341 341 341 341 341 341 342 344 345 347 350 352 352 352 350 346 344 343 342 342 342 341 340 340 338 334 330 325 319 314 308 303 299 296 292 289 285 281 278 276 274 271 269 268 266 265 264 263 262 261 260 258 256 256 255 255 255 254 254 254 255 255 256 257 257 258 259 259 260
303 308 312 316 320 324 326 327 328 329 331 333 333 335 337 338 337 337 338 339 339 338 337 337 339 341 343 345 348 350 350 349 349 347 344 341 341 342 341 340 340 339 338 335 330 326 321 317 313 308 303 299 295 292 288 285 282 280 276 273 270 267 265 264 262 261 260 260 259 259 259 259 259 258 258 258 257 257 257 257 257 257 258 259 260 261 261
300 305 308 312 317 321 325 326 325 326 329 330 332 333 334 335 336 336 336 336 336 336 335 335 337 339 341 343 346 348 348 347 346 346 344 341 339 340 341 340 340 339 338 335 331 326 322 319 316 312 309 304 299 294 291 287 286 284 280 277 274 270 268 265 262 262 261 260 260 259 259 259 259 259 259 259 259 259 258 258 259 259 260 261 262 262 263
297 301 304 309 314 319 323 324 323 324 326 328 330 331 332 333 334 333 333 334 334 334 333 334 336 338 340 341 343 345 346 345 345 344 343 340 338 338 339 339 340 340 339 336 333 329 325 321 318 315 312 308 303 298 294 290 288 285 282 279 277 275 272 269 267 265 264 262 261 260 259 258 258 258 258 258 258 258 259 259 260 261 262 263 263 264 265
293 297 301 307 312 317 321 321 321 322 324 326 328 328 329 330 331 331 331 331 332 332 332 333 335 337 338 339 342 343 343 344 343 342 341 339 337 335 336 337 338 340 340 338 335 333 329 325 320 315 311 308 305 301 297 293 290 286 283 281 280 278 277 274 272 269 267 266 264 263 261 260 258 258 259 259 259 260 260 261 263 264 264 265 266 267 269
291 295 301 306 311 314 317 318 319 320 322 324 325 326 327 328 329 330 330 330 330 330 331 332 334 336 337 338 341 342 342 343 342 340 339 338 336 334 334 335 337 338 338 338 338 335 332 328 322 316 312 308 304 301 299 297 293 290 286 283 282 281 280 277 275 272 270 268 266 264 263 261 260 260 259 260 260 262 263 264 266 266 268 269 271 273 275
291 295 300 304 308 311 314 315 317 319 321 323 324 324 326 327 328 328 328 329 329 329 330 331 332 334 335 337 340 341 342 343 342 339 338 336 334 333 332 332 335 337 337 337 337 335 332 329 324 319 316 311 305 300 298 297 295 294 292 289 286 284 282 279 277 275 272 269 267 266 265 264 263 263 263 263 264 266 267 268 269 270 272 274 276 279 282
290 294 299 302 306 308 311 314 317 319 321 323 324 325 325 326 326 326 327 328 328 328 328 330 332 333 334 336 338 340 341 342 341 339 337 335 333 332 330 330 332 334 334 335 335 334 331 328 325 321 318 313 307 302 298 296 296 296 296 295 293 288 285 282 280 278 276 274 272 271 270 269 268 267 267 268 269 270 271 272 273 274 276 279 281 284 286
290 293 297 300 303 306 310 314 318 320 322 323 325 326 326 326 326 326 326 327 328 328 328 329 330 332 332 334 336 338 339 341 342 340 338 335 332 330 329 328 329 331 331 331 332 331 329 327 323 320 317 312 307 302 298 297 297 297 296 296 295 293 289 286 284 282 279 277 275 274 273 272 272 271 271 271 272 272 273 274 276 278 280 283 285 286 286
289 292 295 299 302 306 311 315 318 320 321 324 326 327 327 327 326 326 326 327 327 327 328 328 329 330 331 333 335 337 338 340 341 340 338 335 332 331 330 328 328 327 327 329 329 327 326 324 321 318 314 310 305 301 299 297 296 296 296 295 294 291 289 286 284 281 280 278 276 275 274 274 274 274 274 274 273 274 274 276 278 280 283 285 286 285 280
288 291 294 299 304 308 312 317 319 319 320 324 327 328 328 327 327 326 326 326 327 327 326 327 328 329 330 331 334 336 338 339 339 339 337 335 333 333 331 330 327 326 326 327 327 326 324 322 319 316 312 307 303 300 299 298 297 296 295 294 292 290 288 286 285 283 281 280 278 277 276 276 276 275 275 274 274 274 275 276 279 282 284 285 284 278 268
286 290 295 300 306 310 313 316 318 318 319 323 326 328 328 327 326 325 325 326 326 326 325 326 327 328 328 329 331 334 336 338 338 337 336 335 334 333 331 330 328 327 327 327 327 326 324 321 317 313 309 305 302 300 298 296 295 294 294 293 292 291 289 288 286 285 283 282 280 279 278 278 277 277 277 276 275 275 275 277 279 282 282 281 277 267 257
286 291 296 302 306 310 313 316 316 316 318 322 326 327 328 326 325 323 324 325 325 324 323 323 324 325 325 327 329 332 335 336 336 335 333 333 333 332 331 329 328 327 326 326 325 325 323 320 315 311 307 303 300 298 296 293 292 291 291 291 291 291 291 290 289 288 286 284 283 282 281 280 279 278 277 276 275 274 274 276 279 280 278 275 269 259 253
287 292 297 302 306 309 312 314 314 314 317 321 325 327 327 325 323 322 323 323 323 322 320 319 320 321 323 325 327 330 332 334 334 333 332 331 331 330 328 327 326 325 325 324 323 322 321 317 312 308 304 300 297 294 291 290 290 289 288 288 289 289 290 290 290 290 287 285 284 285 284 282 280 278 276 275 273 272 272 274 276 276 272 266 261 258 253
287 292 297 301 305 309 311 312 313 314 317 321 325 326 325 323 321 321 322 322 321 318 316 316 316 318 321 323 325 327 330 332 333 332 330 329 329 329 327 326 325 325 325 324 322 320 318 314 309 304 300 296 294 291 290 289 288 287 286 285 286 287 288 288 289 288 286 285 285 286 285 283 280 277 274 272 270 268 269 270 272 270 263 254 253 258 259
287 292 297 301 305 308 309 310 311 313 316 320 323 324 322 321 320 321 321 321 319 315 313 313 315 317 319 321 323 325 328 329 330 330 329 328 328 328 327 327 327 326 325 323 321 319 315 310 305 300 296 294 294 293 291 289 288 286 284 284 284 285 285 285 285 285 284 284 285 285 284 282 280 276 272 269 266 264 265 266 267 264 254 244 243 252 257
287 292 296 300 303 305 306 306 308 312 315 318 321 322 320 319 319 321 321 320 317 313 310 310 312 315 317 318 320 323 326 328 329 330 329 328 328 327 327 327 327 326 324 322 319 317 314 309 302 298 295 294 294 294 291 288 286 284 283 283 283 283 283 283 283 284 283 282 283 283 282 280 278 275 271 266 261 260 261 262 262 259 249 239 238 244 249
288 292 295 297 299 301 302 303 307 311 315 317 320 321 319 318 319 320 321 318 314 310 308 308 310 313 315 317 320 323 326 327 329 329 327 326 326 326 326 326 325 323 321 318 316 315 312 307 301 297 294 293 293 292 290 288 287 285 282 282 282 281 282 283 284 283 282 281 280 280 279 277 277 275 270 264 259 257 258 259 258 255 247 239 238 241 243
287 291 293 295 297 299 300 303 307 312 316 318 319 319 318 318 319 320 319 316 312 309 308 308 310 312 315 317 320 323 325 325 326 325 324 323 324 325 326 325 324 321 319 316 313 311 309 304 297 294 292 292 291 291 290 289 288 287 284 281 280 280 281 283 283 281 279 278 278 277 275 274 274 273 269 263 258 255 255 256 256 253 248 242 240 242 243
287 290 291 293 295 297 300 304 309 313 315 317 318 318 318 319 320 318 314 311 308 307 308 308 309 311 315 318 319 321 322 322 322 322 322 322 323 325 326 326 324 321 318 315 313 310 308 305 299 294 292 291 291 290 289 288 288 287 285 282 280 279 280 281 280 278 277 277 277 276 273 271 270 270 268 263 258 255 254 254 253 251 248 245 243 243 243
287 289 291 292 294 296 300 305 309 313 315 317 317 316 317 319 318 313 309 306 305 305 305 306 307 310 314 316 316 316 317 318 320 321 322 323 325 327 329 328 325 321 318 316 313 310 309 308 306 301 297 294 292 290 289 289 288 286 283 281 279 279 279 279 279 277 276 275 275 276 275 272 269 267 266 263 258 253 251 250 250 249 247 245 244 243 242
287 289 291 292 293 296 300 304 308 311 314 315 315 314 315 317 315 308 303 302 301 301 301 301 302 305 308 310 311 313 316 319 321 323 323 325 327 330 331 329 325 321 319 318 315 312 310 311 311 307 302 298 295 292 291 290 289 285 280 277 276 276 277 277 278 277 276 274 273 273 273 273 270 266 263 261 257 253 250 248 247 247 246 244 243 242 240
287 288 289 290 292 294 298 303 306 309 311 312 311 311 313 315 313 307 299 294 293 292 292 293 296 301 306 310 312 314 317 320 322 323 324 326 329 331 331 329 324 320 319 318 316 314 312 312 310 307 303 299 297 295 293 291 289 286 280 275 274 274 275 275 276 277 277 276 273 271 270 271 270 266 262 259 257 254 251 247 245 245 245 245 242 239 237
287 287 288 288 289 292 296 300 304 306 308 308 309 309 311 312 312 308 300 293 289 287 289 293 299 304 309 312 314 315 318 320 322 323 325 327 329 331 331 328 323 319 317 317 315 313 311 309 307 304 301 300 299 297 294 291 289 286 282 278 275 274 274 275 275 276 277 277 275 272 271 270 270 267 263 259 256 254 252 248 244 241 242 243 242 239 238
Height
5642 5641 5640 5638 5637 5635 5633 5631 5629 5627 5624 5622 5619 5616 5613 5611 5608 5605 5603 5601 5599 5598 5597 5596 5596 5596 5597 5599 5601 5603 5606 5610 5613 5615 5618 5620 5623 5626 5630 5632 5636 5638 5641 5643 5646 5648 5650 5652 5654 5655 5656 5658 5659 5662 5663 5665 5667 5668 5670 5671 5674 5675 5677 5679 5680 5681 5682 5684 5686 5687 5688 5690 5692 5693 5694 5696 5698 5699 5701 5702 5703 5704 5705 5707 5708 5708 5708
5641 5639 5638 5636 5635 5633 5631 5629 5627 5625 5622 5619 5616 5613 5610 5607 5604 5601 5598 5596 5595 5593 5593 5592 5592 5592 5593 5594 5596 5598 5601 5605 5608 5610 5613 5615 5619 5622 5625 5629 5632 5635 5638 5640 5642 5644 5647 5649 5651 5652 5653 5655 5656 5658 5660 5662 5663 5665 5666 5668 5670 5672 5673 5675 5677 5678 5679 5681 5682 5683 5684 5686 5688 5689 5691 5693 5694 5696 5697 5699 5700 5701 5702 5703 5705 5705 5705
5639 5638 5636 5635 5633 5631 5629 5627 5625 5622 5620 5617 5613 5610 5607 5604 5601 5598 5595 5592 5591 5590 5589 5588 5588 5588 5589 5590 5592 5594 5597 5600 5603 5606 5609 5612 5615 5619 5622 5626 5629 5632 5635 5637 5639 5641 5643 5646 5647 5649 5650 5652 5654 5655 5657 5658 5659 5661 5663 5664 5667 5668 5669 5671 5673 5675 5676 5677 5678 5679 5681 5682 5684 5686 5688 5689 5691 5692 5694 5695 5697 5698 5699 5700 5702 5701 5701
5638 5636 5635 5634 5632 5630 5628 5626 5623 5620 5617 5614 5611 5608 5605 5602 5599 5595 5591 5588 5586 5585 5584 5584 5584 5585 5585 5586 5588 5591 5593 5596 5599 5602 5605 5608 5612 5616 5620 5623 5626 5629 5631 5633 5636 5638 5640 5642 5644 5645 5647 5649 5651 5653 5654 5655 5656 5658 5659 5661 5663 5664 5666 5668 5669 5670 5672 5672 5673 5676 5678 5679 5681 5682 5684 5685 5686 5688 5690 5691 5693 5694 5695 5696 5697 5698 5698
5636 5635 5634 5633 5631 5629 5627 5624 5622 5619 5616 5613 5609 5606 5603 5599 5596 5592 5588 5584 5582 5581 5580 5580 5580 5581 5582 5583 5585 5587 5590 5593 5596 5599 5602 5605 5609 5613 5617 5620 5623 5626 5628 5630 5633 5635 5637 5639 5640 5642 5644 5646 5648 5650 5651 5652 5653 5655 5656 5658 5659 5661 5662 5664 5665 5666 5667 5668 5669 5672 5674 5675 5677 5678 5680 5681 5683 5685 5686 5687 5689 5690 5691 5692 5693 5694 5695
5635 5635 5634 5632 5630 5628 5626 5624 5621 5618 5615 5612 5608 5605 5601 5598 5594 5589 5585 5581 5579 5579 5578 5578 5578 5579 5580 5581 5583 5585 5587 5590 5593 5597 5600 5603 5606 5610 5614 5617 5620 5623 5625 5628 5630 5632 5634 5635 5637 5639 5641 5643 5645 5647 5648 5649 5650 5652 5653 5655 5656 5657 5659 5660 5661 5662 5663 5664 5666 5668 5670 5671 5672 5674 5676 5677 5679 5681 5682 5684 5685 5686 5688 5689 5689 5690 5692
5635 5634 5633 5631 5630 5628 5625 5623 5620 5617 5614 5611 5608 5604 5600 5596 5592 5588 5583 5579 5578 5578 5578 5577 5578 5579 5579 5580 5582 5583 5586 5589 5592 5595 5598 5601 5604 5608 5611 5614 5617 5620 5622 5625 5627 5629 5631 5632 5634 5636 5638 5640 5641 5643 5645 5646 5648 5649 5651 5652 5653 5654 5656 5657 5658 5658 5660 5661 5662 5664 5666 5667 5668 5670 5672 5673 5675 5677 5678 5680 5681 5682 5684 5685 5685 5687 5688
5634 5633 5632 5631 5629 5627 5625 5622 5620 5617 5614 5611 5607 5603 5599 5595 5592 5587 5582 5578 5577 5577 5578 5578 5578 5578 5578 5579 5581 5583 5586 5588 5591 5594 5596 5599 5602 5605 5609 5612 5615 5617 5619 5622 5624 5626 5628 5630 5631 5633 5635 5636 5638 5640 5642 5644 5645 5647 5648 5649 5650 5651 5652 5654 5654 5655 5656 5657 5659 5660 5661 5663 5664 5665 5667 5669 5671 5672 5674 5675 5677 5678 5680 5681 5682 5683 5685
5634 5632 5631 5630 5628 5626 5624 5622 5619 5617 5614 5611 5607 5603 5600 5596 5592 5587 5582 5579 5578 5578 5578 5579 5579 5578 5579 5580 5581 5584 5586 5588 5591 5593 5596 5598 5601 5604 5606 5609 5612 5615 5617 5619 5621 5623 5625 5627 5629 5630 5632 5633 5635 5637 5638 5640 5642 5643 5645 5646 5647 5648 5649 5650 5651 5652 5653 5654 5655 5656 5657 5659 5660 5661 5663 5664 5666 5668 5669 5671 5672 5674 5675 5677 5678 5679 5681
5633 5632 5631 5629 5627 5625 5624 5621 5619 5617 5614 5611 5607 5604 5600 5596 5592 5588 5584 5581 5579 5579 5579 5580 5580 5581 5581 5581 5582 5584 5587 5589 5591 5593 5595 5597 5600 5602 5604 5607 5609 5612 5614 5616 5618 5620 5622 5624 5626 5628 5629 5630 5632 5634 5635 5636 5638 5639 5641 5643 5644 5645 5646 5647 5648 5649 5650 5651 5652 5652 5654 5654 5656 5657 5659 5660 5661 5663 5665 5666 5668 5669 5671 5672 5673 5674 5676
5633 5632 5631 5629 5627 5625 5623 5621 5619 5617 5614 5611 5608 5605 5601 5597 5594 5590 5587 5584 5582 5581 5581 5582 5582 5583 5583 5583 5584 5585 5587 5589 5591 5593 5595 5596 5598 5601 5603 5605 5607 5609 5612 5614 5616 5618 5619 5621 5623 5625 5626 5627 5629 5630 5631 5633 5634 5636 5637 5639 5640 5642 5643 5644 5645 5646 5646 5648 5649 5649 5650 5651 5653 5655 5655 5656 5657 5658 5660 5662 5663 5664 5666 5667 5669 5670 5671
5633 5632 5630 5629 5627 5625 5624 5622 5619 5617 5615 5612 5609 5606 5602 5599 5596 5592 5589 5587 5585 5584 5583 5583 5584 5584 5585 5585 5585 5586 5587 5589 5590 5592 5594 5596 5598 5600 5601 5603 5605 5607 5609 5611 5613 5615 5617 5619 5620 5622 5623 5625 5626 5627 5628 5630 5631 5632 5634 5635 5636 5638 5639 5640 5642 5642 5643 5644 5645 5645 5646 5648 5650 5651 5652 5652 5653 5654 5656 5657 5658 5660 5662 5663 5665 5666 5667
5632 5631 5630 5629 5627 5625 5624 5622 5620 5618 5615 5613 5610 5607 5604 5601 5598 5595 5592 5590 5588 5586 5585 5585 5585 5585 5586 5586 5587 5588 5588 5589 5591 5592 5594 5595 5597 5599 5600 5601 5603 5605 5607 5609 5611 5612 5614 5616 5617 5619 5620 5622 5623 5624 5625 5626 5627 5629 5630 5631 5632 5634 5635 5636 5637 5638 5639 5641 5641 5642 5643 5645 5646 5647 5648 5649 5650 5651 5652 5653 5654 5656 5657 5659 5660 5661 5662
5632 5631 5630 5628 5627 5625 5624 5622 5620 5618 5616 5613 5611 5608 5605 5603 5600 5597 5595 5593 5591 5589 5588 5587 5586 5586 5586 5587 5588 5589 5590 5591 5591 5592 5593 5595 5597 5598 5599 5600 5601 5603 5605 5606 5608 5610 5611 5613 5614 5616 5617 5618 5620 5621 5622 5623 5624 5626 5627 5627 5628 5630 5631 5632 5633 5634 5636 5637 5638 5639 5640 5641 5641 5643 5644 5645 5646 5647 5648 5649 5650 5651 5653 5654 5655 5656 5657
5632 5631 5630 5628 5627 5625 5624 5622 5620 5618 5616 5614 5612 5609 5607 5604 5601 5599 5597 5596 5594 5592 5590 5589 5588 5588 5587 5588 5588 5589 5590 5591 5592 5593 5594 5595 5596 5597 5598 5599 5600 5601 5603 5604 5605 5607 5608 5610 5611 5613 5614 5615 5616 5617 5618 5619 5620 5621 5623 5623 5625 5626 5627 5628 5629 5630 5631 5633 5634 5635 5636 5637 5638 5639 5640 5641 5642 5642 5643 5644 5645 5647 5649 5650 5651 5652 5652
5631 5630 5629 5628 5627 5625 5624 5622 5620 5618 5616 5614 5612 5610 5608 5605 5603 5601 5599 5598 5596 5594 5593 5592 5591 5590 5589 5589 5589 5589 5590 5591 5591 5592 5593 5594 5595 5596 5597 5598 5599 5600 5601 5602 5603 5604 5606 5607 5608 5610 5610 5611 5612 5613 5614 5615 5616 5617 5619 5619 5620 5622 5623 5624 5625 5625 5627 5628 5630 5630 5631 5632 5634 5635 5635 5636 5637 5638 5639 5640 5641 5643 5644 5645 5646 5647 5648
5631 5630 5629 5628 5626 5625 5623 5622 5620 5618 5616 5614 5613 5611 5609 5607 5605 5603 5601 5599 5598 5596 5595 5594 5593 5592 5591 5590 5590 5590 5590 5590 5591 5591 5592 5592 5593 5594 5594 5596 5597 5598 5599 5600 5601 5602 5603 5604 5605 5606 5607 5607 5608 5609 5610 5611 5612 5613 5614 5615 5616 5617 5619 5620 5620 5621 5622 5624 5625 5625 5626 5628 5630 5630 5631 5631 5632 5633 5634 5635 5637 5639 5640 5640 5641 5642 5643
5630 5630 5629 5627 5626 5625 5623 5622 5620 5618 5616 5615 5613 5612 5610 5608 5606 5604 5602 5600 5599 5598 5597 5596 5595 5594 5593 5592 5591 5591 5591 5591 5591 5591 5591 5591 5591 5592 5592 5593 5594 5595 5596 5597 5598 5598 5599 5600 5601 5602 5602 5603 5604 5605 5606 5607 5608 5609 5610 5611 5611 5612 5614 5615 5616 5617 5618 5619 5620 5620 5621 5622 5625 5626 5626 5627 5628 5628 5629 5631 5633 5634 5634 5635 5636 5636 5637
5630 5629 5628 5627 5626 5624 5623 5622 5620 5619 5617 5615 5613 5612 5610 5609 5607 5605 5603 5601 5600 5599 5598 5596 5596 5595 5594 5593 5593 5592 5592 5591 5591 5591 5591 5591 5591 5591 5591 5591 5591 5592 5592 5593 5594 5595 5595 5596 5597 5598 5598 5599 5600 5601 5601 5602 5603 5604 5605 5606 5606 5607 5608 5610 5611 5612 5613 5614 5615 5615 5615 5617 5619 5620 5621 5622 5622 5623 5624 5626 5627 5628 5628 5629 5630 5631 5631
5629 5628 5627 5626 5625 5624 5623 5621 5620 5618 5617 5615 5613 5612 5610 5609 5607 5606 5604 5603 5601 5600 5598 5597 5596 5595 5595 5594 5593 5593 5592 5592 5591 5591 5590 5590 5590 5590 5590 5590 5590 5590 5590 5590 5591 5591 5592 5592 5593 5593 5594 5594 5595 5596 5596 5597 5598 5599 5600 5600 5601 5603 5604 5605 5605 5606 5608 5609 5609 5610 5611 5612 5614 5615 5615 5616 5616 5617 5619 5621 5622 5622 5623 5624 5625 5625 5626
5629 5628 5627 5626 5625 5623 5622 5621 5619 5618 5616 5615 5613 5612 5610 5609 5607 5606 5605 5604 5602 5601 5599 5598 5597 5596 5595 5594 5593 5593 5592 5592 5591 5591 5590 5590 5589 5589 5589 5588 5588 5588 5588 5588 5588 5589 5589 5589 5589 5589 5589 5590 5591 5591 5591 5592 5592 5593 5594 5595 5596 5597 5599 5600 5600 5601 5603 5603 5603 5604 5606 5607 5608 5609 5610 5610 5611 5612 5613 5614 5615 5616 5617 5618 5619 5620 5620
5628 5627 5626 5625 5624 5623 5622 5620 5619 5618 5616 5615 5613 5612 5610 5609 5607 5606 5605 5604 5602 5601 5600 5598 5597 5596 5595 5594 5593 5592 5592 5591 5591 5590 5589 5589 5588 5588 5588 5587 5587 5587 5586 5586 5586 5586 5586 5586 5586 5586 5586 5586 5586 5586 5587 5587 5587 5587 5589 5590 5590 5591 5593 5594 5595 5595 5597 5597 5597 5598 5600 5601 5602 5603 5604 5604 5605 5606 5607 5607 5608 5609 5610 5611 5612 5613 5614
5627 5627 5626 5625 5624 5622 5621 5620 5618 5617 5616 5615 5613 5612 5610 5609 5607 5606 5605 5603 5602 5601 5600 5598 5597 5596 5595 5594 5593 5592 5591 5591 5590 5589 5589 5588 5587 5587 5586 5586 5585 5585 5585 5585 5584 5584 5584 5583 5583 5583 5583 5583 5583 5583 5583 5583 5582 5583 5583 5584 5585 5585 5586 5588 5589 5590 5590 5591 5592 5593 5594 5595 5596 5597 5597 5598 5599 5599 5600 5601 5601 5602 5603 5604 5605 5606 5607
5627 5626 5625 5624 5623 5622 5621 5619 5618 5616 5615 5614 5612 5611 5610 5608 5607 5606 5604 5603 5602 5601 5599 5598 5597 5596 5594 5593 5592 5591 5591 5590 5589 5588 5588 5587 5586 5586 5585 5585 5584 5584 5583 5583 5582 5582 5582 5581 5581 5581 5580 5580 5580 5580 5579 5579 5579 5579 5579 5579 5580 5580 5581 5582 5583 5584 5585 5586 5586 5588 5588 5589 5590 5591 5591 5592 5593 5593 5594 5595 5595 5596 5597 5597 5598 5598 5599
5626 5625 5624 5623 5622 5621 5620 5619 5617 5616 5614 5613 5612 5610 5609 5608 5607 5605 5604 5602 5601 5600 5598 5597 5596 5595 5593 5592 5591 5590 5590 5589 5588 5587 5587 5586 5585 5585 5584 5583 5583 5582 5582 5581 5581 5580 5580 5579 5579 5578 5578 5578 5577 5577 5577 5576 5576 5576 5576 5576 5576 5576 5577 5578 5578 5579 5580 5580 5581 5582 5583 5583 5584 5585 5586 5586 5587 5588 5588 5589 5589 5590 5591 5591 5592 5592 5593
5625 5624 5624 5623 5622 5620 5619 5618 5617 5616 5614 5613 5611 5610 5608 5607 5606 5604 5603 5602 5600 5599 5598 5596 5595 5594 5593 5591 5590 5589 5588 5588 5587 5586 5585 5585 5584 5583 5582 5582 5581 5581 5580 5580 5579 5578 5578 5577 5577 5576 5576 5575 5575 5575 5574 5574 5574 5573 5573 5573 5573 5573 5573 5574 5574 5575 5576 5576 5576 5577 5578 5578 5579 5580 5580 5581 5582 5582 5583 5583 5584 5584 5584 5585 5585 5586 5586
5624 5623 5622 5622 5621 5620 5618 5617 5616 5615 5613 5612 5610 5609 5608 5606 5605 5603 5602 5601 5599 5598 5597 5595 5594 5593 5592 5591 5590 5588 5587 5587 5586 5585 5584 5583 5582 5582 5581 5580 5580 5579 5579 5578 5577 5577 5576 5575 5575 5574 5574 5573 5573 5572 5572 5572 5571 5571 5571 5571 5571 5571 5571 5571 5571 5571 5572 5572 5572 5573 5574 5574 5574 5575 5576 5576 5577 5577 5578 5578 5579 5579 5579 5580 5580 5580 5581
5622 5622 5621 5620 5620 5618 5617 5616 5615 5613 5612 5611 5609 5608 5607 5605 5604 5602 5601 5600 5598 5597 5595 5594 5593 5592 5591 5590 5589 5587 5586 5585 5585 5584 5583 5582 5581 5580 5580 5579 5578 5578 5577 5576 5576 5575 5574 5573 5573 5572 5571 5571 5570 5570 5570 5569 5569 5569 5569 5568 5568 5568 5568 5569 5569 5569 5569 5569 5569 5569 5570 5570 5570 5570 5571 5571 5572 5573 5573 5573 5574 5574 5574 5575 5575 5575 5576
5621 5620 5620 5619 5618 5617 5616 5615 5613 5612 5611 5609 5608 5607 5606 5604 5603 5601 5600 5598 5597 5595 5594 5593 5592 5590 5589 5588 5587 5586 5585 5584 5583 5583 5582 5581 5580 5579 5578 5578 5577 5576 5575 5574 5574 5573 5572 5571 5571 5570 5569 5569 5568 5568 5567 5567 5567 5566 5566 5566 5566 5566 5566 5566 5566 5566 5566 5566 5565 5566 5566 5566 5566 5567 5567 5567 5568 5568 5569 5569 5569 5570 5570 5570 5570 5571 5571
5619 5618 5618 5617 5616 5616 5615 5613 5612 5610 5609 5608 5606 5605 5604 5603 5601 5600 5598 5597 5596 5594 5593 5591 5590 5589 5588 5587 5586 5585 5584 5583 5582 5581 5580 5580 5579 5578 5577 5576 5575 5575 5574 5573 5572 5571 5570 5569 5569 5568 5567 5567 5566 5566 5565 5565 5564 5564 5564 5564 5563 5563 5563 5563 5563 5563 5563 5563 5562 5562 5563 5563 5563 5563 5563 5564 5564 5564 5565 5565 5565 5565 5566 5566 5566 5566 5566
5617 5616 5616 5615 5615 5614 5613 5612 5610 5609 5608 5607 5605 5604 5602 5601 5600 5598 5597 5595 5594 5593 5591 5590 5589 5587 5586 5585 5584 5583 5582 5581 5580 5580 5579 5578 5577 5576 5575 5575 5574 5573 5572 5571 5570 5569 5569 5568 5567 5566 5565 5565 5564 5563 5563 5562 5562 5561 5561 5561 5561 5560 5560 5560 5560 5560 5560 5560 5560 5560 5560 5560 5560 5560 5560 5560 5560 5561 5561 5561 5561 5561 5562 5562 5562 5562 5562
5615 5614 5614 5613 5613 5612 5612 5610 5609 5607 5606 5605 5604 5602 5601 5599 5598 5597 5595 5594 5592 5591 5589 5588 5587 5586 5585 5584 5583 5582 5581 5580 5579 5578 5577 5576 5576 5575 5574 5573 5572 5571 5571 5570 5569 5568 5567 5566 5565 5564 5563 5563 5562 5561 5560 5560 5559 5559 5558 5558 5558 5558 5557 5557 5557 5557 5557 5557 5556 5556 5556 5556 5556 5556 5556 5556 5557 5557 5557 5557 5557 5557 5557 5557 5557 5557 5557
5613 5613 5612 5612 5611 5610 5610 5609 5607 5606 5605 5603 5602 5600 5599 5598 5596 5595 5593 5592 5591 5589 5588 5586 5585 5584 5583 5582 5581 5581 5580 5579 5577 5577 5576 5575 5574 5573 5572 5571 5571 5570 5569 5568 5567 5566 5565 5564 5563 5562 5561 5561 5560 5559 5558 5557 5557 5556 5556 5555 5555 5555 5554 5554 5554 5554 5554 5554 5553 5553 5553 5553 5553 5553 5553 5553 5553 5553 5553 5553 5553 5553 5553 5553 5553 5553 5552
5611 5611 5610 5610 5609 5608 5608 5607 5605 5604 5603 5602 5600 5599 5597 5596 5594 5593 5592 5590 5589 5587 5586 5585 5584 5583 5582 5581 5580 5579 5578 5577 5576 5575 5574 5573 5572 5571 5571 5570 5569 5568 5567 5566 5565 5564 5563 5562 5561 5560 5559 5559 5558 5557 5556 5555 5554 5554 5553 5553 5552 5552 5552 5552 5551 5551 5551 5551 5550 5550 5550 5550 5550 5549 5549 5549 5549 5549 5549 5549 5549 5549 5549 5549 5548 5548 5548
5609 5609 5608 5608 5607 5606 5606 5605 5604 5602 5601 5600 5598 5597 5595 5594 5592 5591 5590 5588 5587 5585 5584 5583 5582 5581 5580 5579 5578 5578 5577 5576 5575 5574 5573 5572 5571 5570 5569 5568 5567 5566 5565 5564 5563 5562 5561 5560 5559 5558 5557 5556 5555 5554 5553 5552 5552 5551 5551 5550 5550 5549 5549 5549 5548 5548 5548 5548 5547 5547 5547 5547 5546 5546 5546 5546 5546 5546 5546 5546 5546 5545 5545 5545 5544 5544 5543
5607 5607 5606 5606 5605 5604 5603 5603 5602 5600 5599 5598 5596 5595 5593 5592 5590 5589 5588 5586 5585 5584 5582 5581 5580 5579 5578 5578 5577 5576 5575 5574 5573 5572 5571 5570 5569 5568 5567 5566 5565 5564 5563 5562 5561 5560 5559 5558 5557 5556 5555 5554 5553 5552 5551 5550 5549 5549 5548 5548 5547 5547 5546 5546 5545 5545 5545 5544 5544 5544 5543 5543 5543 5543 5543 5543 5543 5543 5542 5542 5542 5542 5541 5541 5540 5540 5539
5605 5604 5604 5604 5603 5602 5601 5600 5599 5598 5597 5595 5594 5593 5591 5590 5588 5587 5586 5584 5583 5582 5581 5580 5579 5578 5577 5576 5575 5574 5573 5573 5572 5571 5570 5568 5567 5566 5565 5564 5563 5562 5561 5560 5559 5558 5557 5555 5554 5553 5552 5551 5550 5549 5548 5547 5546 5546 5545 5545 5545 5544 5543 5543 5542 5542 5542 5541 5541 5540 5540 5540 5540 5540 5540 5540 5539 5539 5539 5539 5538 5538 5538 5537 5537 5536 5535
5602 5602 5602 5601 5601 5600 5599 5598 5597 5596 5594 5593 5592 5590 5589 5588 5586 5585 5583 5582 5581 5580 5579 5578 5577 5576 5575 5575 5574 5572 5571 5571 5570 5569 5568 5567 5566 5565 5564 5562 5561 5560 5559 5558 5557 5555 5554 5553 5552 5550 5549 5548 5547 5546 5545 5544 5543 5543 5542 5542 5542 5541 5541 5540 5540 5539 5539 5538 5537 5537 5537 5536 5536 5536 5536 5536 5536 5536 5536 5536 5535 5535 5534 5534 5533 5533 5532
5600 5600 5600 5599 5598 5598 5597 5596 5595 5593 5592 5591 5590 5588 5587 5585 5584 5582 5581 5580 5579 5578 5577 5576 5575 5574 5574 5573 5572 5571 5570 5569 5568 5567 5566 5565 5564 5563 5562 5560 5559 5558 5557 5556 5554 5553 5552 5550 5549 5547 5546 5545 5544 5543 5542 5541 5540 5540 5539 5539 5538 5538 5538 5538 5537 5536 5536 5535 5534 5534 5534 5533 5533 5533 5533 5533 5533 5533 5533 5532 5532 5531 5531 5531 5530 5530 5529
5598 5597 5597 5597 5596 5595 5594 5593 5592 5591 5590 5589 5588 5586 5585 5583 5582 5580 5579 5578 5577 5576 5575 5574 5573 5573 5572 5571 5570 5569 5568 5567 5566 5565 5564 5563 5562 5561 5560 5558 5557 5556 5554 5553 5552 5550 5549 5547 5546 5544 5543 5541 5541 5540 5539 5538 5537 5537 5536 5535 5535 5535 5535 5535 5534 5534 5533 5532 5531 5531 5530 5530 5530 5530 5530 5530 5529 5529 5529 5529 5529 5528 5528 5528 5527 5527 5527
5595 5595 5594 5594 5594 5593 5592 5591 5590 5589 5588 5587 5585 5584 5583 5581 5580 5578 5577 5576 5575 5574 5573 5572 5572 5571 5570 5570 5569 5568 5567 5566 5565 5564 5562 5561 5560 5559 5558 5556 5555 5554 5552 5551 5549 5548 5546 5544 5543 5541 5539 5538 5537 5536 5536 5535 5534 5533 5533 5532 5532 5532 5532 5531 5531 5530 5530 5529 5528 5527 5527 5527 5527 5527 5526 5526 5526 5526 5526 5526 5526 5525 5525 5525 5525 5525 5525
5593 5592 5592 5591 5591 5590 5590 5589 5588 5586 5585 5584 5583 5582 5581 5579 5578 5577 5575 5574 5573 5572 5571 5571 5570 5569 5569 5568 5567 5566 5565 5564 5563 5562 5560 5559 5558 5557 5555 5554 5553 5551 5550 5548 5546 5545 5543 5541 5539 5538 5536 5535 5534 5533 5532 5531 5531 5530 5530 5529 5529 5528 5528 5528 5527 5527 5526 5525 5525 5524 5524 5524 5524 5523 5523 5523 5523 5523 5523 5523 5523 5523 5523 5523 5523 5523 5523
5590 5590 5589 5589 5588 5588 5587 5586 5585 5584 5583 5582 5581 5580 5578 5577 5576 5575 5573 5572 5571 5570 5570 5569 5568 5567 5567 5566 5565 5564 5563 5562 5561 5560 5559 5557 5556 5555 5553 5552 5550 5549 5547 5545 5543 5542 5540 5538 5536 5534 5532 5531 5530 5529 5529 5528 5528 5527 5526 5526 5525 5525 5525 5524 5524 5524 5523 5522 5522 5521 5521 5521 5520 5520 5520 5520 5520 5520 5520 5520 5520 5520 5520 5520 5521 5521 5521
5587 5587 5586 5586 5586 5585 5584 5583 5582 5581 5580 5580 5579 5577 5576 5575 5574 5572 5571 5570 5569 5568 5568 5567 5566 5566 5565 5564 5563 5562 5561 5560 5559 5558 5557 5555 5554 5553 5551 5550 5548 5546 5544 5542 5540 5538 5536 5534 5532 5530 5528 5527 5526 5526 5525 5524 5524 5524 5523 5522 5522 5522 5521 5521 5521 5520 5520 5519 5519 5518 5518 5517 5517 5517 5517 5517 5517 5517 5517 5517 5517 5517 5518 5518 5519 5519 5519
5584 5584 5584 5583 5583 5582 5581 5580 5580 5579 5578 5577 5576 5575 5574 5573 5571 5570 5569 5568 5567 5567 5566 5565 5565 5564 5563 5562 5561 5560 5559 5558 5557 5556 5554 5553 5552 5550 5549 5547 5546 5544 5542 5539 5537 5535 5533 5531 5528 5526 5524 5523 5522 5522 5521 5521 5520 5520 5520 5519 5519 5518 5518 5518 5517 5517 5517 5516 5516 5515 5515 5514 5514 5514 5514 5514 5514 5515 5515 5515 5515 5515 5515 5516 5517 5517 5518
5582 5581 5581 5580 5580 5580 5579 5578 5577 5576 5576 5575 5574 5573 5572 5570 5569 5568 5567 5566 5565 5565 5564 5564 5563 5562 5561 5560 5559 5558 5557 5556 5555 5553 5552 5550 5549 5548 5546 5544 5542 5540 5538 5536 5533 5531 5529 5527 5524 5522 5521 5519 5518 5518 5517 5517 5517 5516 5516 5516 5515 5515 5515 5514 5514 5514 5514 5514 5513 5513 5512 5512 5511 5511 5511 5512 5512 5512 5512 5512 5512 5513 5513 5514 5515 5515 5516
5579 5578 5578 5577 5577 5577 5576 5575 5574 5574 5573 5572 5571 5570 5569 5568 5567 5565 5564 5563 5563 5562 5562 5562 5561 5560 5559 5558 5557 5556 5554 5553 5552 5551 5549 5548 5546 5545 5543 5541 5538 5536 5534 5531 5529 5527 5525 5523 5521 5519 5517 5516 5515 5514 5514 5513 5513 5513 5512 5512 5512 5511 5511 5511 5511 5511 5511 5511 5510 5510 5509 5509 5509 5509 5509 5509 5509 5509 5510 5510 5510 5510 5511 5512 5512 5513 5514
5576 5575 5575 5574 5574 5574 5573 5573 5572 5571 5570 5570 5569 5568 5567 5566 5564 5563 5562 5561 5560 5560 5560 5559 5559 5558 5557 5556 5554 5553 5552 5551 5550 5548 5546 5544 5543 5541 5539 5537 5534 5532 5529 5527 5525 5522 5521 5519 5518 5516 5514 5513 5511 5511 5510 5509 5509 5509 5509 5508 5508 5508 5508 5507 5508 5508 5508 5508 5507 5507 5507 5506 5506 5506 5506 5506 5507 5507 5507 5507 5508 5508 5509 5509 5510 5511 5512
5572 5572 5571 5571 5571 5571 5571 5570 5569 5568 5568 5567 5566 5565 5564 5564 5562 5560 5559 5558 5558 5558 5557 5557 5556 5555 5555 5554 5552 5551 5550 5548 5547 5546 5543 5541 5539 5537 5535 5533 5530 5527 5525 5523 5521 5518 5517 5515 5514 5512 5511 5509 5508 5507 5507 5506 5506 5505 5505 5505 5505 5504 5504 5504 5504 5504 5505 5505 5505 5504 5504 5504 5504 5504 5504 5504 5504 5504 5504 5505 5505 5506 5506 5507 5508 5509 5509
5569 5568 5568 5568 5568 5568 5568 5567 5566 5566 5565 5564 5563 5562 5562 5561 5560 5558 5557 5556 5556 5555 5555 5554 5554 5553 5552 5551 5550 5549 5547 5546 5544 5542 5540 5537 5535 5533 5531 5528 5525 5522 5520 5518 5517 5514 5513 5512 5511 5509 5507 5506 5505 5504 5503 5503 5502 5502 5502 5501 5501 5501 5501 5501 5501 5501 5501 5502 5502 5502 5501 5501 5501 5501 5501 5501 5501 5501 5502 5502 5503 5503 5504 5504 5505 5506 5507
5566 5565 5565 5565 5565 5565 5564 5564 5563 5563 5562 5561 5560 5559 5559 5558 5557 5556 5555 5554 5554 5553 5553 5552 5552 5551 5550 5549 5547 5546 5544 5542 5541 5538 5536 5534 5532 5529 5527 5524 5521 5517 5515 5514 5513 5511 5509 5508 5507 5506 5504 5503 5502 5501 5500 5500 5499 5499 5498 5498 5498 5498 5498 5497 5497 5497 5498 5498 5499 5499 5499 5499 5499 5498 5498 5498 5498 5498 5499 5499 5500 5501 5502 5502 5503 5504 5505
5563 5562 5562 5562 5562 5561 5561 5561 5560 5560 5559 5558 5557 5556 5555 5554 5554 5553 5552 5552 5551 5551 5550 5550 5549 5548 5547 5546 5544 5542 5540 5539 5537 5535 5533 5530 5528 5525 5523 5520 5517 5514 5511 5510 5508 5507 5506 5504 5503 5502 5501 5500 5499 5498 5497 5497 5496 5495 5495 5495 5495 5495 5495 5494 5494 5494 5494 5495 5495 5496 5496 5496 5496 5495 5495 5495 5495 5496 5496 5497 5498 5498 5499 5500 5501 5502 5502